sat.trackr.live / text

‹ back to catalog

STARLINK-11325 [DTC]

NORAD 61538 · 2024-184G

PAYLOAD ACTIVE UNKNOWN

§ Identity

Operator
Country
US
Launch date
2024-10-15
Launch site
AFWTR
Launch vehicle
Mass (kg)
RCS (m²)

Purposes: comms

External: N2YO · Heavens-Above · Gunter

§ Orbital elements

Epoch: 2026-09-21T17:54:00.834336Z

Period
91.74 min
Inclination
53.1580°
Eccentricity
0.0000797
Mean motion
15.69705325 rev/d
Perigee alt
359.2 km
Apogee alt
360.3 km
Semi-major
6,737.9 km
B*
8.3992e-7
RAAN
349.5197°
Arg perigee
113.6040°
Mean anomaly
246.5061°
Rev number
11,121

§ Raw data

STARLINK-11325 [DTC]1 61538U 24184G   26264.74584299 -.00000486  00000+0  83992-6 0  99952 61538  53.1580 349.5197 0000797 113.6040 246.5061 15.69705325111216

JSON: /api/v1/satellites/61538 · /tle

For live sub-satellite position, see the globe view (requires WebGL).

§ Visibility from observer

Set your observer location to see the next 7 days of passes ≥ 10°. The values pass through the URL so the page stays shareable.

No JS? Fill the form by hand. The geolocation button needs JavaScript.